STARLINK-1838 (47129 NORAD) Tracking and Keplerian Element Data
This shows tracking and keplerian element data for the satellite.
Feedback or suggestion? Click here.
Element | Value |
Catalog | 47129 |
Name | STARLINK-1838 |
Epoch Orbit | 974 |
Epoch Day | 21.16668981 |
Epoch Year | 2021 |
RAAN | 72.9158 |
Inclination | 53.0547 |
Eccentricity | 0.0002079 |
Argument of Perigee | 19.8933 |
Mean Anonmoly | 33.7574 |
Mean Motion | 15.62768177 |
Decay Rate | -0.00019968 |
L1 | 1 47129U 20088H 21021.16668981 -.00019968 00000-0 -21262-3 0 9993 |
L2 | 2 47129 53.0547 72.9158 0002079 19.8933 33.7574 15.62768177 9741 |
Live tracking and technical data element details for STARLINK-1838 (NORAD 47129). STARLINK-1838 can be tracked NOW for your location showing map with azimuth and elevation plus other details from your city location.
Track the satellite on the map from your city or location and see movement details for azimuth, elevation, latitude, longitude, range, height, and movement on the map or in text.
IsCatalogInMostPopularTable: catalog: 47129, numindb: 16
Update: records affected: 1
GetName: 47129 STARLINK-1838
Hit Count: updated at: Fri, 22 Jan 2021 16:25:20 GMT